Dumas, TX

5:56 AM CST on February 13, 2016 (GMT -0600)
Moore County

Weather History for KDUX - June, 2014

Change the Weather History Date:

Friday, June 6, 2014

  Actual Average (KBGD) Record (KBGD)
Temperature  
Mean Temperature 72 °F 74 °F  
Max Temperature 85 °F 87 °F 102 °F (1980)
Min Temperature 59 °F 62 °F 46 °F (1998)
Degree Days  
Heating Degree Days 0 0  
Month to date heating degree days 0  
Since 1 June heating degree days 0  
Since 1 July heating degree days 3763  
Cooling Degree Days 6 10  
Month to date cooling degree days 54  
Year to date cooling degree days 251  
Since 1 June cooling degree days 54  
Growing Degree Days 22 (Base 50)    
Moisture  
Dew Point 59 °F    
Average Humidity 65    
Maximum Humidity 96    
Minimum Humidity 35    
Precipitation  
Precipitation 0.20 in 0.14 in 0.59 in (1982)
Month to date precipitation 0.68  
Year to date precipitation 7.73  
Snow  
Snow 0.00 in - 0.00 in (2013)
Month to date snowfall  
Since 1 June snowfall  
Since 1 July snowfall  
Snow Depth -    
Sea Level Pressure  
Sea Level Pressure 29.93 in    
Wind  
Wind Speed 12 mph (ESE)    
Max Wind Speed 37 mph    
Max Gust Speed 61 mph    
Visibility 10 miles    
Events Rain    
T = Trace of Precipitation, MM = Missing Value Source: NWS Daily Summary

Daily Weather History Graph

Daily Weather History Graph

Search for Another Location

Airport or City:

Trip Planner

Search our weather history database for the weather conditions in past years. The results will help you decide how hot, cold, wet, or windy it might be!

Date:

Astronomy

Jun. 06, 2014 Rise Set
Actual Time 6:31 AM CDT 9:02 PM CDT
Civil Twilight 6:01 AM CDT 9:31 PM CDT
Nautical Twilight 5:24 AM CDT 10:08 PM CDT
Astronomical Twilight 4:44 AM CDT 10:49 PM CDT
Moon 2:34 PM CDT (6/6) 2:11 AM CDT (6/6)
Length of Visible Light 15h 30m
Length of Day
14h 30m
First Quarter, 58% of the Moon is Illuminated
Jun 6
First Quarter
Jun 12
Full
Jun 19
Last Quarter
Jun 27
New
Jul 5
First Quarter

Hourly Weather History & Observations

Time (CDT) Temp. Heat Index Dew Point Humidity Pressure Visibility Wind Dir Wind Speed Gust Speed Precip Events Conditions
12:15 AM 73.8 °F - 55.9 °F 54% 29.97 in 10.0 mi ENE 15.0 mph - N/A   Clear
12:35 AM 73.4 °F - 56.1 °F 55% 29.94 in 10.0 mi ENE 18.4 mph 23.0 mph N/A   Clear
12:55 AM 72.7 °F - 55.2 °F 54% 29.85 in 10.0 mi NE 19.6 mph 25.3 mph N/A   Clear
1:15 AM 72.3 °F - 56.7 °F 58% 29.93 in 10.0 mi East 17.3 mph 25.3 mph N/A   Clear
1:35 AM 72.1 °F - 57.0 °F 59% 29.93 in 10.0 mi East 15.0 mph 23.0 mph N/A   Clear
1:55 AM 72.1 °F - 57.9 °F 61% 29.92 in 10.0 mi East 17.3 mph 24.2 mph N/A   Clear
2:15 AM 72.0 °F - 58.5 °F 62% 29.95 in 10.0 mi East 13.8 mph 24.2 mph N/A   Clear
2:35 AM 72.0 °F - 59.0 °F 64% 29.92 in 10.0 mi ESE 18.4 mph 25.3 mph N/A   Clear
2:55 AM 72.0 °F - 59.4 °F 64% 29.89 in 10.0 mi East 19.6 mph 25.3 mph N/A   Clear
3:15 AM 71.6 °F - 59.9 °F 66% 29.91 in 10.0 mi East 17.3 mph - N/A   Clear
3:35 AM 71.1 °F - 60.3 °F 69% 29.89 in 10.0 mi East 16.1 mph - N/A   Clear
3:55 AM 71.1 °F - 61.2 °F 71% 29.90 in 10.0 mi ENE 10.4 mph - N/A   Clear
4:15 AM 70.7 °F - 61.7 °F 73% 29.98 in 10.0 mi Calm Calm - N/A   Scattered Clouds
4:35 AM 70.5 °F - 63.3 °F 78% 30.01 in 10.0 mi Calm Calm - N/A Rain Light Rain
4:55 AM 66.9 °F - 63.5 °F 89% 29.96 in 7.0 mi North 16.1 mph - 0.02 in Rain Rain
5:15 AM 66.7 °F - 62.8 °F 87% 29.89 in 10.0 mi North 15.0 mph 20.7 mph 0.02 in Rain Rain
5:35 AM 68.9 °F - 58.6 °F 70% 29.92 in 10.0 mi West 3.5 mph - 0.03 in Rain Light Rain
5:55 AM 67.6 °F - 59.7 °F 76% 29.95 in 10.0 mi Calm Calm - 0.04 in Rain Light Rain
6:15 AM 67.3 °F - 60.1 °F 78% 29.94 in 10.0 mi Calm Calm - N/A Rain Light Rain
6:35 AM 69.3 °F - 57.9 °F 67% 29.89 in 10.0 mi Calm Calm - N/A   Scattered Clouds
6:55 AM 66.4 °F - 60.1 °F 80% 29.90 in 10.0 mi Calm Calm - N/A   Clear
7:15 AM 65.5 °F - 59.9 °F 82% 29.88 in 10.0 mi Calm Calm - N/A   Clear
7:35 AM 65.8 °F - 61.2 °F 85% 29.90 in 10.0 mi Calm Calm - N/A   Clear
7:55 AM 66.2 °F - 63.0 °F 89% 29.94 in 10.0 mi Calm Calm - N/A   Clear
8:15 AM 68.4 °F - 61.5 °F 79% 29.97 in 10.0 mi WNW 10.4 mph - N/A   Clear
8:35 AM 68.2 °F - 61.5 °F 79% 29.97 in 10.0 mi West 10.4 mph - N/A   Clear
8:55 AM 69.6 °F - 61.7 °F 76% 29.97 in 10.0 mi West 12.7 mph - N/A   Clear
9:15 AM 70.3 °F - 62.1 °F 75% 29.98 in 10.0 mi West 9.2 mph - N/A   Clear
9:35 AM 70.0 °F - 62.8 °F 78% 30.00 in 10.0 mi Calm Calm - N/A   Clear
9:55 AM 71.1 °F - 63.7 °F 77% 30.00 in 10.0 mi Calm Calm - N/A   Clear
10:15 AM 72.7 °F - 63.5 °F 73% 30.00 in 10.0 mi Calm Calm - N/A   Clear
10:35 AM 73.0 °F - 63.0 °F 71% 29.99 in 10.0 mi Calm Calm - N/A   Clear
10:55 AM 75.2 °F - 62.6 °F 65% 29.98 in 10.0 mi SE 3.5 mph - N/A   Clear
11:15 AM 75.6 °F - 61.3 °F 61% 29.99 in 10.0 mi SSE 5.8 mph - N/A   Clear
11:35 AM 75.7 °F - 60.4 °F 59% 30.00 in 10.0 mi South 8.1 mph - N/A   Clear
11:55 AM 75.4 °F - 59.0 °F 57% 30.00 in 10.0 mi Calm Calm - N/A   Clear
12:15 PM 78.3 °F - 59.2 °F 52% 29.99 in 10.0 mi Calm Calm - N/A   Clear
12:35 PM 79.5 °F - 60.6 °F 52% 29.98 in 10.0 mi SE 12.7 mph - N/A   Clear
12:55 PM 78.1 °F - 56.8 °F 48% 29.98 in 10.0 mi ESE 11.5 mph 19.6 mph N/A   Clear
1:15 PM 78.8 °F - 57.0 °F 47% 29.99 in 10.0 mi SE 11.5 mph 18.4 mph N/A   Clear
1:35 PM 79.2 °F - 56.1 °F 45% 29.98 in 10.0 mi SE 16.1 mph - N/A   Clear
1:55 PM 79.2 °F - 56.3 °F 45% 29.98 in 10.0 mi ESE 9.2 mph 17.3 mph N/A   Clear
2:15 PM 79.5 °F - 55.6 °F 44% 29.97 in 10.0 mi ESE 11.5 mph 19.6 mph N/A   Clear
2:35 PM 81.9 °F 81.2 °F 54.3 °F 39% 29.97 in 10.0 mi ESE 12.7 mph 20.7 mph N/A   Clear
2:55 PM 82.0 °F 81.3 °F 54.1 °F 38% 29.96 in 10.0 mi SE 13.8 mph 18.4 mph N/A   Clear
3:15 PM 82.9 °F - 52.5 °F 35% 29.95 in 10.0 mi East 12.7 mph 19.6 mph N/A   Clear
3:35 PM 83.5 °F 82.6 °F 55.9 °F 39% 29.93 in 10.0 mi SE 8.1 mph 18.4 mph N/A   Clear
3:55 PM 84.2 °F 82.8 °F 53.6 °F 35% 29.93 in 10.0 mi SE 18.4 mph 24.2 mph N/A   Clear
4:15 PM 84.6 °F 83.2 °F 54.5 °F 36% 29.91 in 10.0 mi SSE 16.1 mph 24.2 mph N/A   Clear
4:35 PM 84.6 °F 83.9 °F 57.7 °F 40% 29.90 in 10.0 mi SE 13.8 mph 25.3 mph N/A   Scattered Clouds
4:55 PM 83.5 °F 83.6 °F 60.3 °F 45% 29.88 in 10.0 mi SE 13.8 mph 25.3 mph N/A   Scattered Clouds
5:15 PM 83.8 °F 84.5 °F 62.4 °F 48% 29.88 in 10.0 mi SE 17.3 mph 23.0 mph N/A   Scattered Clouds
5:35 PM 84.9 °F 85.9 °F 63.5 °F 48% 29.86 in 10.0 mi ESE 17.3 mph 20.7 mph N/A   Scattered Clouds
5:55 PM 82.9 °F 84.0 °F 63.0 °F 51% 29.84 in 10.0 mi ESE 13.8 mph 17.3 mph N/A   Mostly Cloudy
6:15 PM 82.9 °F 83.5 °F 61.3 °F 48% 29.83 in 10.0 mi SE 10.4 mph - N/A   Mostly Cloudy
6:35 PM 82.8 °F 83.0 °F 60.1 °F 46% 29.79 in 7.0 mi SE 13.8 mph 23.0 mph N/A   Scattered Clouds
6:55 PM 82.4 °F 82.7 °F 60.3 °F 47% 29.79 in 10.0 mi South 19.6 mph 27.6 mph N/A   Scattered Clouds
7:15 PM 79.7 °F - 61.9 °F 54% 29.80 in 10.0 mi SSE 9.2 mph - N/A Rain Light Rain
7:35 PM 77.0 °F - 63.9 °F 64% 29.84 in 10.0 mi SE 15.0 mph 21.9 mph N/A Rain Light Rain
7:55 PM 74.8 °F - 60.6 °F 61% 29.96 in 5.0 mi West 36.8 mph 43.7 mph 0.07 in Rain Light Rain
8:15 PM 59.5 °F - 58.5 °F 96% 29.98 in 4.0 mi NW 28.8 mph 61.0 mph 0.03 in Rain Light Rain
8:35 PM 59.2 °F - 58.1 °F 96% 29.95 in 7.0 mi NW 23.0 mph 39.1 mph 0.04 in Rain Light Rain
8:55 PM 59.4 °F - 57.6 °F 94% 29.94 in 10.0 mi NNE 9.2 mph 19.6 mph 0.06 in Rain Rain
9:15 PM 59.9 °F - 57.7 °F 93% 29.92 in 10.0 mi East 6.9 mph - N/A Rain Light Rain
9:35 PM 64.2 °F - 56.7 °F 76% 29.91 in 7.0 mi Calm Calm - 0.01 in Rain Rain
9:55 PM 65.3 °F - 54.9 °F 69% 29.87 in 10.0 mi NE 16.1 mph 21.9 mph 0.01 in   Scattered Clouds
10:15 PM 64.4 °F - 55.8 °F 73% 29.88 in 10.0 mi Calm Calm - N/A   Clear
10:35 PM 63.5 °F - 56.3 °F 77% 29.88 in 10.0 mi Calm Calm - N/A   Clear
10:55 PM 62.8 °F - 57.4 °F 82% 29.88 in 10.0 mi SE 10.4 mph - N/A   Clear
11:15 PM 63.0 °F - 57.2 °F 81% 29.90 in 10.0 mi SE 18.4 mph - N/A   Clear
11:35 PM 62.1 °F - 57.4 °F 85% 29.88 in 10.0 mi SSE 21.9 mph 27.6 mph N/A   Clear
11:55 PM 61.7 °F - 57.4 °F 86% 29.88 in 10.0 mi SSE 18.4 mph 28.8 mph N/A   Clear